TimePST,TemperatureF,Dew PointF,Humidity,Sea Level PressureIn,VisibilityMPH,Wind Direction,Wind SpeedMPH,Gust SpeedMPH,PrecipitationIn,Events,Conditions,WindDirDegrees,DateUTC
12:15 AM,50.0,50.0,100,30.39,10.0,Calm,Calm,-,N/A,,Overcast,0,2013-02-28 08:15:00
12:35 AM,48.2,48.2,100,30.39,0.2,SE,5.8,-,N/A,,Overcast,140,2013-02-28 08:35:00
12:55 AM,48.2,48.2,100,30.39,0.2,Calm,Calm,-,N/A,,Overcast,0,2013-02-28 08:55:00
1:15 AM,48.2,48.2,100,30.39,0.8,SE,6.9,-,N/A,,Overcast,140,2013-02-28 09:15:00
1:35 AM,50.0,50.0,100,30.39,10.0,SE,6.9,-,N/A,,Overcast,130,2013-02-28 09:35:00
1:55 AM,50.0,50.0,100,30.39,10.0,SE,5.8,-,N/A,,Overcast,140,2013-02-28 09:55:00
2:15 AM,50.0,50.0,100,30.38,10.0,SE,5.8,-,N/A,,Overcast,140,2013-02-28 10:15:00
2:35 AM,50.0,50.0,100,30.38,10.0,SE,5.8,-,N/A,,Overcast,140,2013-02-28 10:35:00
2:55 AM,50.0,50.0,100,30.38,10.0,ESE,8.1,-,N/A,,Overcast,120,2013-02-28 10:55:00
3:15 AM,50.0,50.0,100,30.39,8.0,SE,5.8,-,N/A,,Overcast,140,2013-02-28 11:15:00
3:35 AM,50.0,50.0,100,30.39,4.0,SE,6.9,-,N/A,,Overcast,140,2013-02-28 11:35:00
3:55 AM,50.0,50.0,100,30.40,3.0,SE,4.6,-,0.01,,Overcast,140,2013-02-28 11:55:00
4:35 AM,50.0,50.0,100,30.40,6.0,ESE,8.1,-,0.01,,Overcast,120,2013-02-28 12:35:00
4:55 AM,50.0,50.0,100,30.41,3.0,ESE,10.4,-,0.01,,Overcast,120,2013-02-28 12:55:00
5:15 AM,50.0,50.0,100,30.41,3.0,ESE,10.4,-,N/A,,Overcast,110,2013-02-28 13:15:00
5:35 AM,50.0,50.0,100,30.42,5.0,SE,9.2,-,0.01,,Overcast,130,2013-02-28 13:35:00
5:55 AM,50.0,50.0,100,30.42,5.0,ESE,9.2,-,0.02,,Overcast,120,2013-02-28 13:55:00
6:15 AM,50.0,50.0,100,30.42,10.0,SE,6.9,-,N/A,,Overcast,140,2013-02-28 14:15:00
6:35 AM,50.0,50.0,100,30.43,0.5,Calm,Calm,-,N/A,,Overcast,0,2013-02-28 14:35:00
6:55 AM,50.0,50.0,100,30.43,7.0,Calm,Calm,-,N/A,,Overcast,0,2013-02-28 14:55:00
7:15 AM,50.0,50.0,100,30.43,2.0,Calm,Calm,-,N/A,,Overcast,0,2013-02-28 15:15:00
7:35 AM,50.0,50.0,100,30.43,7.0,ESE,9.2,-,N/A,,Overcast,120,2013-02-28 15:35:00
7:55 AM,50.0,50.0,100,30.44,1.2,SE,6.9,-,N/A,,Overcast,140,2013-02-28 15:55:00
8:15 AM,50.0,50.0,100,30.44,2.5,SSE,5.8,-,N/A,,Overcast,150,2013-02-28 16:15:00
8:35 AM,50.0,50.0,100,30.45,10.0,Calm,Calm,-,N/A,,Overcast,0,2013-02-28 16:35:00
8:55 AM,50.0,50.0,100,30.47,5.0,Calm,Calm,-,N/A,,Mostly Cloudy,0,2013-02-28 16:55:00
9:15 AM,51.8,51.8,100,30.47,4.0,Calm,Calm,-,N/A,,Mostly Cloudy,0,2013-02-28 17:15:00
9:35 AM,51.8,51.8,100,30.48,5.0,SSE,3.5,-,N/A,,Overcast,160,2013-02-28 17:35:00
9:55 AM,53.6,53.6,100,30.48,10.0,Calm,Calm,-,N/A,,Overcast,0,2013-02-28 17:55:00
10:35 AM,55.4,55.4,100,30.48,10.0,Calm,Calm,-,N/A,,Overcast,0,2013-02-28 18:35:00
10:55 AM,55.4,55.4,100,30.49,10.0,ESE,5.8,-,N/A,,Overcast,110,2013-02-28 18:55:00
11:15 AM,55.4,55.4,100,30.49,10.0,Calm,Calm,-,N/A,,Overcast,0,2013-02-28 19:15:00
11:35 AM,57.2,57.2,100,30.49,10.0,Calm,Calm,-,N/A,,Overcast,0,2013-02-28 19:35:00
11:55 AM,57.2,57.2,100,30.49,10.0,SE,5.8,-,N/A,,Overcast,140,2013-02-28 19:55:00
12:15 PM,57.2,55.4,94,30.50,10.0,Calm,Calm,-,N/A,,Overcast,0,2013-02-28 20:15:00
12:35 PM,57.2,55.4,94,30.49,10.0,Calm,Calm,-,N/A,,Overcast,0,2013-02-28 20:35:00
12:55 PM,59.0,55.4,88,30.49,10.0,Calm,Calm,-,N/A,,Overcast,0,2013-02-28 20:55:00
1:15 PM,57.2,57.2,100,30.49,2.5,Calm,Calm,-,N/A,,Mostly Cloudy,0,2013-02-28 21:15:00
1:35 PM,57.2,57.2,100,30.48,5.0,Calm,Calm,-,N/A,,Partly Cloudy,0,2013-02-28 21:35:00
1:55 PM,59.0,57.2,94,30.48,10.0,Calm,Calm,-,N/A,,Scattered Clouds,0,2013-02-28 21:55:00
2:15 PM,57.2,57.2,100,30.48,10.0,NW,4.6,-,N/A,,Mostly Cloudy,320,2013-02-28 22:15:00
2:35 PM,59.0,57.2,94,30.47,10.0,NW,8.1,-,N/A,,Mostly Cloudy,320,2013-02-28 22:35:00
2:55 PM,57.2,57.2,100,30.47,10.0,NNW,9.2,-,N/A,,Partly Cloudy,330,2013-02-28 22:55:00
3:15 PM,55.4,55.4,100,30.48,10.0,NW,9.2,-,N/A,,Clear,320,2013-02-28 23:15:00
3:35 PM,57.2,55.4,94,30.48,10.0,NNW,9.2,-,N/A,,Clear,330,2013-02-28 23:35:00
3:55 PM,55.4,55.4,100,30.48,10.0,NNW,9.2,-,N/A,,Mostly Cloudy,330,2013-02-28 23:55:00
4:15 PM,55.4,55.4,100,30.48,10.0,NNW,8.1,-,N/A,,Mostly Cloudy,330,2013-03-01 00:15:00
4:35 PM,55.4,55.4,100,30.49,10.0,NNW,8.1,-,N/A,,Partly Cloudy,330,2013-03-01 00:35:00
4:55 PM,55.4,55.4,100,30.48,10.0,NNW,9.2,-,N/A,,Clear,330,2013-03-01 00:55:00
5:15 PM,55.4,55.4,100,30.49,10.0,NNW,8.1,-,N/A,,Scattered Clouds,340,2013-03-01 01:15:00
5:35 PM,53.6,53.6,100,30.50,10.0,NW,10.4,-,N/A,,Overcast,320,2013-03-01 01:35:00
5:55 PM,51.8,51.8,100,30.50,10.0,NNW,8.1,-,N/A,,Overcast,330,2013-03-01 01:55:00
6:15 PM,51.8,51.8,100,30.50,10.0,NNW,6.9,-,N/A,,Overcast,330,2013-03-01 02:15:00
6:35 PM,51.8,51.8,100,30.50,10.0,NNW,4.6,-,N/A,,Overcast,330,2013-03-01 02:35:00
7:15 PM,50.0,50.0,100,30.51,0.2,Calm,Calm,-,N/A,,Overcast,0,2013-03-01 03:15:00
7:35 PM,50.0,50.0,100,30.51,0.2,Calm,Calm,-,N/A,,Overcast,0,2013-03-01 03:35:00
7:55 PM,50.0,50.0,100,30.52,0.2,Calm,Calm,-,N/A,,Overcast,0,2013-03-01 03:55:00
8:15 PM,50.0,50.0,100,30.52,0.2,Calm,Calm,-,N/A,,Overcast,0,2013-03-01 04:15:00
8:35 PM,50.0,50.0,100,30.52,0.2,NW,3.5,-,N/A,,Overcast,310,2013-03-01 04:35:00
9:35 PM,50.0,50.0,100,30.53,0.2,Calm,Calm,-,N/A,,Overcast,0,2013-03-01 05:35:00
9:55 PM,50.0,50.0,100,30.53,0.2,Calm,Calm,-,N/A,,Overcast,0,2013-03-01 05:55:00
10:15 PM,50.0,50.0,100,30.53,0.2,Calm,Calm,-,N/A,,Overcast,0,2013-03-01 06:15:00
10:35 PM,50.0,50.0,100,30.54,0.2,Calm,Calm,-,N/A,,Overcast,0,2013-03-01 06:35:00
10:55 PM,50.0,50.0,100,30.53,0.2,Calm,Calm,-,N/A,,Overcast,0,2013-03-01 06:55:00
11:15 PM,50.0,50.0,100,30.53,0.2,Calm,Calm,-,N/A,,Overcast,0,2013-03-01 07:15:00
11:35 PM,50.0,50.0,100,30.53,0.2,Calm,Calm,-,N/A,,Overcast,0,2013-03-01 07:35:00
11:55 PM,50.0,50.0,100,30.52,0.2,Calm,Calm,-,N/A,,Overcast,0,2013-03-01 07:55:00